Regional Weather Roundup
Issued by NWS Cleveland, OH

Home | Current Version | Previous Version | Graphics & Text | Print | Product List | Glossary On
Versions: 1 2 3 4 5 6 7 8 9 10 11 12 13 14 15 16 17 18 19 20 21 22 23 24 25 26 27 28 29 30 31 32 33 34 35 36 37 38 39 40 41 42 43 44 45 46 47 48 49 50
000
ASUS41 KCLE 011310
RWRCLE
OHIO REGIONAL WEATHER ROUNDUP
NATIONAL WEATHER SERVICE CLEVELAND, OH
900 AM EDT SAT AUG 01 2015

NOTE: "FAIR" INDICATES FEW OR NO CLOUDS BELOW 12,000 FEET WITH NO
SIGNIFICANT WEATHER AND/OR OBSTRUCTIONS TO VISIBILITY.

OHZ001>008-015>018-024>027-034-035-043-044-011400-
   NORTHWEST OHIO

CITY           SKY/WX    TMP DP  RH WIND       PRES   REMARKS
DEFIANCE       SUNNY     70  58  65 NW8       29.97R
FINDLAY        SUNNY     68  58  70 W7        29.97R
TOLEDO EXPRESS SUNNY     67  58  72 W8        29.95R
TOLEDO EXEC    SUNNY     70  58  65 W9        29.96R
LIMA           MOSUNNY   68  59  73 SW5       29.99R
$$

OHZ009>014-019>023-028>033-038-089-011400-
   NORTHEAST OHIO

CITY           SKY/WX    TMP DP  RH WIND       PRES   REMARKS
CLE-HOPKINS    SUNNY     70  58  65 SW8       29.96R
CLE-LAKEFRONT  SUNNY     73  62  68 SW10      29.92R
CUY CO. ARPT   MOSUNNY   75  64  69 W12       29.94R
LORAIN-ELYRIA  SUNNY     69  57  65 NW7       29.95R
ASHTABULA      SUNNY     72  60  66 NW7       29.93S
AKRON-CANTON   SUNNY     70  57  63 W8        29.96R
WOOSTER        SUNNY     69  55  60 W8        29.97R
MANSFIELD      SUNNY     69  55  60 W6        29.98R
YOUNGSTOWN     MOSUNNY   70  60  70 VRB5      29.94R
$$

OHZ042-051>053-060>062-070>072-077>081-011400-
  SOUTHWEST OHIO

CITY           SKY/WX    TMP DP  RH WIND       PRES   REMARKS
CINC-COVINGTON NOT AVBL
CINC-LUNKEN    SUNNY     70  65  84 CALM      30.01R
HAMILTON       SUNNY     71  62  73 CALM      30.02R
DAYTON         MOSUNNY   70  59  68 NW8       30.02R
WRIGHT-PAT AFB SUNNY     69  61  77 SW3       30.00R
DAYTON GENERAL SUNNY     69  58  67 W5        30.01R
WILMINGTON     SUNNY     71  59  65 W3        30.01R
$$

OHZ036-037-039>041-045>050-054>059-063>069-073>076-082>088-011400-
  CENTRAL AND SOUTHEAST OHIO

CITY           SKY/WX    TMP DP  RH WIND       PRES   REMARKS
COLUMBUS       MOSUNNY   71  60  68 CALM      29.98R
OSU AIRPORT    SUNNY     72  58  61 NW9       29.98R
BOLTON FIELD   SUNNY     70  61  73 NW5       29.99R
RICKENBACK AFB SUNNY     67  61  79 CALM      29.98S
NEWARK         SUNNY     71  59  65 NW7       29.98R
MARION         SUNNY     69  55  60 W9        29.98R
LANCASTER      SUNNY     73  61  65 CALM      29.99R
ZANESVILLE     SUNNY     71  57  61 W3        29.97R
NEW PHILLY     SUNNY     70  59  68 NW6       29.96R
$$


USA.gov is the U.S. government's official web portal to all federal, state and local government web resources and services.